Stations météo

réclame
Mon MeteoGroup
Manschnow, Allemagne (10396): Température de l'air & dewpoint: 10.11.2018 00:00:00 - 16.11.2018 00:00:00 (CET)Manschnow, Allemagne (10396): Température de l'air 5cm & Température de l'air -5cm: 10.11.2018 00:00:00 - 16.11.2018 00:00:00 (CET)Manschnow, Allemagne (10396): Température de l'air -20cm & Température de l'air -100cm: 10.11.2018 00:00:00 - 16.11.2018 00:00:00 (CET)Manschnow, Allemagne (10396): Vitesse du vent & gusts: 10.11.2018 00:00:00 - 16.11.2018 00:00:00 (CET)Manschnow, Allemagne (10396): Direction du vent: 10.11.2018 00:00:00 - 16.11.2018 00:00:00 (CET)Manschnow, Allemagne (10396): reduced air pressure: 10.11.2018 00:00:00 - 16.11.2018 00:00:00 (CET)Manschnow, Allemagne (10396): visibility: 10.11.2018 00:00:00 - 16.11.2018 00:00:00 (CET)Manschnow, Allemagne (10396): Ensoleillement: 10.11.2018 00:00:00 - 16.11.2018 00:00:00 (CET)Manschnow, Allemagne (10396): Quantités de précipitations: 10.11.2018 00:00:00 - 16.11.2018 00:00:00 (CET)
Date & Time tt [°C] td [°C] tt 5cm [°C] tt -5cm [°C] tt -20cm [°C] tt -100cm [°C] ff [km/h] ff [knt] fx [km/h] fx [knt] dd ppp [hPa] vv [km] sd [min] rr [mm]
16.11.2018 00:00:00 1,2 0,8 0,5 2,5 6,5 11,2 11 6 15 8 E 1033,8 0,4 0 0,0
15.11.2018 23:00:00 2,0 1,4 1,0 2,9 6,8 11,2 9 5 14 8 E 1033,4 2,1 0 0,0
15.11.2018 22:00:00 2,6 1,9 1,4 3,5 7,0 11,2 6 4 14 8 E 1033,3 2,5 0 0,0
15.11.2018 21:00:00 3,8 3,2 2,6 4,0 7,3 11,2 8 4 13 7 ENE 1032,9 2,7 0 0,0
15.11.2018 20:00:00 4,2 3,5 3,2 4,6 7,6 11,2 10 6 17 9 E 1032,6 3,0 0 0,0
15.11.2018 19:00:00 5,1 4,0 4,0 5,2 7,8 11,3 13 7 17 9 E 1032,2 5 0 0,0
15.11.2018 18:00:00 5,7 4,0 4,5 5,9 8,1 11,3 14 7 19 10 E 1032,1 12 0 0,0
15.11.2018 17:00:00 7,0 4,2 5,7 6,9 8,2 11,3 12 7 19 10 E 1031,6 21 4 0,0
15.11.2018 16:00:00 8,7 4,9 7,2 8,2 8,2 11,3 11 6 25 13 ESE 1031,4 31 60 0,0
15.11.2018 15:00:00 10,4 5,1 10,2 9,4 7,9 11,3 14 7 25 13 E 1031,3 24 60 0,0
15.11.2018 14:00:00 9,2 6,7 10,3 9,8 7,5 11,3 11 6 20 11 E 1031,2 10 60 0,0
15.11.2018 13:00:00 8,4 6,6 9,8 9,4 7,1 11,3 9 5 16 9 ENE 1031,5 7 40 0,0
15.11.2018 12:00:00 6,4 5,6 7,4 8,7 6,7 11,3 9 5 13 7 ENE 1031,7 3,9 59 0,0
15.11.2018 11:00:00 4,9 4,0 5,9 6,9 6,5 11,3 5 3 11 6 ENE 1031,9 3,1 60 0,0
15.11.2018 10:00:00 3,7 2,5 5,1 5,6 6,4 11,3 5 3 13 7 ENE 1031,8 4,7 60 0,0
15.11.2018 09:00:00 2,6 2,2 3,5 4,1 6,5 11,3 9 5 16 9 E 1031,5 2,6 17 0,0
15.11.2018 08:00:00 1,9 1,6 1,8 3,7 6,6 11,3 6 3 14 8 E 1031,3 0,8 0 0,0
15.11.2018 07:00:00 1,9 1,7 1,6 3,7 6,8 11,3 8 4 10 6 E 1030,9 0,5 0 0,0
15.11.2018 06:00:00 2,4 2,1 2,0 4,0 6,9 11,3 5 3 13 7 E 1030,9 0,2 0 0,0
15.11.2018 05:00:00 3,0 2,6 2,7 4,5 7,1 11,3 10 5 13 7 E 1030,6 1,2 0 0,0
15.11.2018 04:00:00 3,1 2,7 2,6 4,5 7,3 11,3 5 3 11 6 E 1030,4 2,0 0 0,0
15.11.2018 03:00:00 3,5 2,9 2,9 4,9 7,4 11,3 8 5 11 6 E 1030,6 2,8 0 0,0
15.11.2018 02:00:00 4,3 3,9 4,0 5,5 7,5 11,3 5 3 8 5 E 1030,5 2,9 0 0,0
15.11.2018 01:00:00 4,3 3,8 4,1 5,6 7,6 11,3 5 3 7 4 E 1030,4 2,4 0 0,0
15.11.2018 00:00:00 4,8 4,2 4,3 5,7 7,7 11,3 3 2 9 5 ENE 1030,7 3,6 0 0,0
14.11.2018 23:00:00 4,9 4,5 4,4 5,8 7,9 11,3 4 2 5 3 SE 1030,6 2,9 0 0,0
14.11.2018 22:00:00 4,8 4,4 3,9 5,7 8,0 11,3 2 1 5 3 SE 1030,7 2,9 0 0,0
14.11.2018 21:00:00 4,6 4,2 4,2 6,0 8,2 11,3 4 2 6 3 ESE 1030,5 1,2 0 0,0
14.11.2018 20:00:00 4,9 4,4 4,3 6,2 8,4 11,3 3 1 5 3 SSE 1030,4 0,3 0 0,0
14.11.2018 19:00:00 5,5 5,1 4,2 6,5 8,7 11,4 2 1 4 2 S 1030,1 2,7 0 0,0
14.11.2018 18:00:00 6,0 5,4 4,2 6,9 8,9 11,4 0 0 7 4 N 1030,2 6 0 0,0
14.11.2018 17:00:00 8,4 6,9 5,3 8,0 9,0 11,4 6 4 8 5 SW 1029,9 14 0 0,0
14.11.2018 16:00:00 9,8 7,1 7,4 9,3 8,9 11,4 5 3 14 8 SW 1029,9 17 29 0,0
14.11.2018 15:00:00 10,4 7,6 10,2 10,2 8,7 11,4 9 5 15 8 SW 1029,8 15 37 0,0
14.11.2018 14:00:00 10,4 6,9 10,5 10,3 8,4 11,4 8 5 18 10 W 1029,6 15 47 0,0
14.11.2018 13:00:00 9,7 6,9 9,9 10,1 8,1 11,4 14 8 21 11 W 1029,7 12 20 0,0
14.11.2018 12:00:00 8,9 6,5 9,4 9,1 7,8 11,4 11 6 24 13 W 1029,8 9 2 0,0
14.11.2018 11:00:00 8,4 6,4 8,4 8,2 7,6 11,4 16 9 22 12 W 1029,7 9 0 0,0
14.11.2018 10:00:00 8,0 6,4 7,9 7,5 7,5 11,4 16 9 25 14 W 1029,3 8 0 0,0
14.11.2018 09:00:00 7,4 5,9 7,2 6,4 7,5 11,4 13 7 20 11 W 1028,9 9 0 0,0
14.11.2018 08:00:00 6,4 5,2 5,6 5,5 7,6 11,4 9 5 22 12 WSW 1028,4 9 0 0,0
14.11.2018 07:00:00 6,6 5,2 5,2 5,8 7,7 11,4 10 5 19 10 WSW 1027,9 11 0 0,0
14.11.2018 06:00:00 7,6 5,8 6,9 6,3 7,8 11,4 12 7 22 12 W 1027,8 13 0 0,0
14.11.2018 05:00:00 7,5 5,6 6,0 5,9 7,9 11,4 13 7 25 13 WSW 1027,5 16 0 0,0
14.11.2018 04:00:00 7,4 5,7 6,7 5,9 8,0 11,4 12 7 22 12 WSW 1027,3 17 0 0,0
14.11.2018 03:00:00 6,6 5,1 5,4 5,7 8,2 11,4 15 8 22 12 WSW 1027,0 17 0 0,0
14.11.2018 02:00:00 7,2 5,5 5,9 6,2 8,3 11,4 14 8 24 13 WSW 1027,1 20 0 0,0
14.11.2018 01:00:00 7,6 5,8 6,4 6,8 8,4 11,4 16 9 25 14 WSW 1026,7 25 0 0,0
14.11.2018 00:00:00 8,4 6,5 7,6 7,1 8,5 11,4 16 8 24 13 WSW 1026,4 25 0 0,0
13.11.2018 23:00:00 7,5 6,0 6,5 6,5 8,7 11,4 14 8 22 12 WSW 1026,0 25 0 0,0
13.11.2018 22:00:00 7,9 6,2 6,5 6,9 8,9 11,4 14 8 27 14 WSW 1025,7 66 0 0,0
13.11.2018 21:00:00 9,0 6,2 7,5 7,5 9,0 11,4 17 9 26 14 WSW 1025,2 70 0 0,0
13.11.2018 20:00:00 10,0 7,1 8,9 8,1 9,1 11,4 18 10 26 14 SW 1024,3 66 0 0,0
13.11.2018 19:00:00 9,9 6,9 8,5 7,9 9,3 11,4 15 8 39 21 SW 1023,8 70 0 2,9
13.11.2018 18:00:00 10,6 9,7 6,2 9,4 9,4 11,4 6 3 22 12 SW 1023,4 0,7 0 3,6
13.11.2018 17:00:00 10,8 9,7 9,7 9,4 9,4 11,4 10 6 18 10 SW 1023,2 10 0 0,0
13.11.2018 16:00:00 11,2 9,8 9,7 10,2 9,3 11,4 11 6 21 11 WSW 1022,6 11 7 0,0
13.11.2018 15:00:00 11,3 10,2 10,9 10,4 9,2 11,4 11 6 17 9 SW 1022,1 13 3 0,5
13.11.2018 14:00:00 10,7 9,9 10,3 10,1 9,0 11,4 10 6 16 9 SW 1021,9 8 0 0,8
13.11.2018 13:00:00 10,3 9,7 10,1 9,8 8,9 11,4 10 5 14 8 WSW 1021,6 4,1 0 0,8
13.11.2018 12:00:00 9,9 9,2 9,8 9,4 8,8 11,4 9 5 14 8 WSW 1021,4 5 0 1,1
13.11.2018 11:00:00 9,6 9,1 9,4 9,0 8,7 11,4 6 4 13 7 SW 1021,2 3,1 0 0,7
13.11.2018 10:00:00 9,3 8,7 9,0 8,6 8,6 11,4 6 3 13 7 SSW 1020,7 3,9 0 2,8
13.11.2018 09:00:00 9,2 8,0 8,6 8,2 8,6 11,4 6 4 9 5 W 1020,5 2,9 0 0,1
13.11.2018 08:00:00 8,9 7,2 8,5 7,8 8,6 11,4 5 3 9 5 SE 1019,9 9 0 0,0
13.11.2018 07:00:00 7,9 6,3 7,5 7,4 8,7 11,4 4 2 6 4 S 1019,5 9 0 0,0
13.11.2018 06:00:00 8,8 6,5 6,6 7,2 8,8 11,4 6 3 9 5 SSW 1019,4 12 0 0,0
13.11.2018 05:00:00 9,5 6,7 7,7 7,5 8,9 11,4 6 3 16 8 SSW 1019,5 14 0 0,0
13.11.2018 04:00:00 9,6 6,5 7,9 7,5 9,0 11,4 12 6 18 10 SSW 1019,5 13 0 0,0
13.11.2018 03:00:00 9,3 6,3 7,3 7,9 9,1 11,4 11 6 17 9 SSW 1019,3 14 0 0,0
13.11.2018 02:00:00 10,2 6,6 8,4 8,3 9,2 11,4 13 7 20 11 S 1019,0 15 0 0,0
13.11.2018 01:00:00 11,7 6,9 10,6 8,8 9,2 11,4 15 8 21 11 S 1018,4 16 0 0,0
13.11.2018 00:00:00 10,5 7,0 8,7 8,7 9,2 11,4 11 6 24 13 S 1018,6 13 0 0,0
12.11.2018 23:00:00 11,8 7,4 10,6 9,0 9,3 11,5 16 8 26 14 S 1018,4 14 0 0,0
12.11.2018 22:00:00 11,7 7,6 10,6 9,0 9,3 11,5 15 8 23 12 S 1018,5 12 0 0,0
12.11.2018 21:00:00 11,2 7,8 10,3 8,9 9,4 11,5 15 8 25 14 S 1018,4 11 0 0,0
12.11.2018 20:00:00 10,6 7,8 9,2 8,8 9,5 11,5 13 7 24 13 S 1018,1 9 0 0,0
12.11.2018 19:00:00 11,4 8,0 9,8 9,2 9,5 11,5 16 9 26 14 SSE 1017,7 11 0 0,0
12.11.2018 18:00:00 12,6 8,7 10,7 9,6 9,6 11,5 14 8 29 16 SSE 1017,8 13 0 0,0
12.11.2018 17:00:00 11,8 8,9 9,1 9,7 9,6 11,5 8 4 16 9 SE 1017,5 15 1 0,0
12.11.2018 16:00:00 13,4 9,3 11,4 10,7 9,6 11,5 11 6 19 11 SE 1017,3 18 16 0,0
12.11.2018 15:00:00 14,5 9,3 14,0 11,7 9,3 11,5 9 5 23 12 SE 1017,4 20 25 0,0
12.11.2018 14:00:00 14,4 8,8 14,2 12,0 9,0 11,5 13 7 18 10 SE 1017,7 23 0 0,0
12.11.2018 13:00:00 14,3 8,9 14,7 12,2 8,6 11,5 14 7 24 13 SSE 1018,4 22 36 0,0
12.11.2018 12:00:00 13,4 9,0 13,6 11,0 8,2 11,5 10 5 15 8 ESE 1018,4 23 0 0,0
12.11.2018 11:00:00 12,2 8,3 12,8 10,3 7,9 11,5 5 3 16 9 SE 1018,9 17 1 0,0
12.11.2018 10:00:00 11,2 7,8 11,8 8,9 7,6 11,5 12 7 18 10 SSE 1018,6 15 47 0,0
12.11.2018 09:00:00 9,5 7,1 9,9 7,5 7,5 11,5 13 7 16 9 SE 1018,9 10 50 0,0
12.11.2018 08:00:00 7,4 6,0 6,6 6,1 7,5 11,5 5 3 10 5 S 1018,6 7 8 0,0
12.11.2018 07:00:00 7,3 6,0 5,8 6,0 7,6 11,5 8 4 19 10 SE 1017,6 7 0 0,0
12.11.2018 06:00:00 7,4 6,0 5,9 5,9 7,6 11,5 13 7 17 9 SE 1017,4 7 0 0,0
12.11.2018 05:00:00 7,6 6,2 5,8 6,2 7,7 11,5 11 6 13 7 SE 1017,4 7 0 0,0
12.11.2018 04:00:00 7,8 6,3 5,1 6,2 7,7 11,5 6 3 15 8 S 1017,6 8 0 0,0
12.11.2018 03:00:00 7,6 6,1 6,1 6,1 7,8 11,5 10 5 14 8 SE 1017,2 7 0 0,0
12.11.2018 02:00:00 6,9 5,7 5,3 6,0 7,8 11,5 8 4 15 8 ESE 1017,2 6 0 0,0
12.11.2018 01:00:00 7,0 5,7 5,7 6,1 7,9 11,5 8 4 15 8 SE 1016,8 7 0 0,0
12.11.2018 00:00:00 7,2 5,7 5,4 6,0 8,0 11,5 10 5 17 9 SSE 1016,6 7 0 0,0
11.11.2018 23:00:00 7,8 5,9 6,0 6,1 8,1 11,5 11 6 19 10 SSE 1016,3 10 0 0,0
11.11.2018 22:00:00 8,3 6,2 6,5 6,2 8,2 11,5 15 8 22 12 S 1015,8 10 0 0,0
11.11.2018 21:00:00 7,7 6,2 5,7 6,4 8,3 11,5 11 6 17 9 SSE 1015,4 9 0 0,0
11.11.2018 20:00:00 9,3 6,8 7,2 6,3 8,5 11,5 12 6 23 12 S 1015,4 12 0 0,0
11.11.2018 19:00:00 7,2 6,3 5,2 6,4 8,7 11,5 6 4 11 6 ESE 1014,6 6 0 0,0
11.11.2018 18:00:00 7,4 6,5 4,9 7,0 8,9 11,5 8 4 14 8 SE 1014,5 5 0 0,0
11.11.2018 17:00:00 7,8 6,8 5,8 7,8 9,0 11,5 10 5 13 7 SE 1014,2 6 0 0,0
11.11.2018 16:00:00 9,0 7,4 8,0 9,2 8,9 11,5 10 5 19 10 SSE 1014,0 7 59 0,0
11.11.2018 15:00:00 9,2 7,5 9,6 9,3 8,8 11,5 10 5 16 9 SE 1013,2 8 4 0,0
11.11.2018 14:00:00 9,0 7,0 9,1 9,4 8,7 11,5 8 4 15 8 S 1013,6 9 0 0,0
11.11.2018 13:00:00 8,7 6,8 8,7 9,4 8,5 11,6 10 5 18 10 S 1013,2 8 0 0,1
11.11.2018 12:00:00 8,4 6,5 8,5 9,0 8,3 11,6 12 7 20 11 S 1012,9 8 0 0,1
11.11.2018 11:00:00 8,0 6,1 8,7 8,4 8,2 11,6 11 6 16 9 SSE 1012,5 9 0 0,0
11.11.2018 10:00:00 5,6 4,9 6,2 7,5 8,2 11,6 10 5 14 8 ESE 1012,3 4,5 6 0,0
11.11.2018 09:00:00 4,1 3,9 5,1 6,9 8,2 11,6 10 6 14 8 ESE 1012,6 2,0 0 0,0
11.11.2018 08:00:00 2,6 2,5 2,9 6,4 8,3 11,6 7 4 14 7 E 1012,7 0,3 0 0,0
11.11.2018 07:00:00 3,6 3,5 3,8 6,7 8,4 11,6 8 5 15 8 E 1012,0 0,2 0 0,0
11.11.2018 06:00:00 4,6 4,3 4,6 6,8 8,4 11,6 12 7 17 9 SE 1011,8 0,2 0 0,0
11.11.2018 05:00:00 5,2 4,9 5,2 7,0 8,5 11,6 9 5 11 6 ESE 1011,7 0,3 0 0,0
11.11.2018 04:00:00 5,3 5,1 5,4 7,0 8,6 11,6 8 4 13 7 ESE 1011,6 0,2 0 0,0
11.11.2018 03:00:00 5,4 5,3 5,4 6,9 8,7 11,6 7 4 14 8 ESE 1011,8 0,2 0 0,0
11.11.2018 02:00:00 4,3 4,1 4,5 6,6 8,8 11,6 8 4 16 9 E 1011,9 0,2 0 0,0
11.11.2018 01:00:00 3,3 3,0 3,2 6,5 9,1 11,6 10 5 16 8 E 1011,7 0,1 0 0,0
11.11.2018 00:00:00 4,4 4,0 3,9 7,2 9,2 11,6 6 3 12 7 E 1011,9 0,2 0 0,0
10.11.2018 23:00:00 6,7 6,0 5,5 8,1 9,3 11,6 9 5 18 10 ESE 1011,7 2,2 0 0,0
10.11.2018 22:00:00 7,9 7,0 7,5 8,5 9,4 11,6 13 7 22 12 SE 1011,9 3,3 0 0,0
10.11.2018 21:00:00 7,9 7,1 7,7 8,5 9,5 11,6 14 8 22 12 ESE 1011,9 3,0 0 0,0
10.11.2018 20:00:00 8,0 7,1 7,7 8,5 9,6 11,6 12 7 23 12 SE 1011,9 3,2 0 0,0
10.11.2018 19:00:00 7,8 6,9 7,0 8,2 9,8 11,6 17 9 24 13 SE 1011,9 3,2 0 0,0
10.11.2018 18:00:00 8,8 6,9 7,5 8,9 10,0 11,6 16 8 21 12 ESE 1011,7 6 0 0,0
10.11.2018 17:00:00 10,4 7,2 8,7 9,6 10,1 11,6 15 8 20 11 ESE 1011,4 9 0 0,0
10.11.2018 16:00:00 11,9 7,9 10,4 10,9 10,0 11,6 11 6 19 10 SE 1011,3 10 19 0,0
10.11.2018 15:00:00 13,2 8,5 13,1 11,8 9,9 11,6 12 7 23 12 SE 1011,0 11 60 0,0
10.11.2018 14:00:00 13,3 8,6 14,2 12,0 9,6 11,6 11 6 21 12 ESE 1011,1 12 60 0,0
10.11.2018 13:00:00 12,3 8,0 13,6 11,8 9,3 11,6 14 8 22 12 SE 1011,5 11 60 0,0
10.11.2018 12:00:00 11,0 7,7 12,6 11,1 9,0 11,6 13 7 20 11 ESE 1012,0 9 51 0,0
10.11.2018 11:00:00 9,8 7,8 11,1 9,9 8,9 11,6 13 7 21 11 SE 1012,6 6 3 0,0
10.11.2018 10:00:00 8,9 7,5 9,5 9,2 8,8 11,6 11 6 19 10 SE 1012,9 5 0 0,0
10.11.2018 09:00:00 8,4 7,4 8,6 8,7 8,8 11,6 14 8 21 12 SE 1012,7 4,0 0 0,0
10.11.2018 08:00:00 8,2 7,4 8,1 8,3 8,8 11,6 13 7 21 11 SSE 1012,8 3,0 0 0,0
10.11.2018 07:00:00 8,1 7,3 7,9 8,3 8,8 11,6 13 7 19 11 SE 1012,8 2,9 0 0,0
10.11.2018 06:00:00 8,1 7,3 8,0 8,3 8,8 11,6 12 7 17 9 SSE 1013,0 2,8 0 0,0
10.11.2018 05:00:00 8,2 7,3 8,0 8,3 8,8 11,6 10 5 16 9 SSE 1013,4 3,2 0 0,0
10.11.2018 04:00:00 8,4 7,5 8,2 8,3 8,8 11,7 10 5 18 10 SSE 1013,7 3,4 0 0,0
10.11.2018 03:00:00 8,2 7,4 7,9 8,1 8,8 11,7 13 7 18 10 SSE 1013,8 2,9 0 0,0
10.11.2018 02:00:00 8,4 7,5 8,1 8,3 8,8 11,7 6 3 15 8 S 1014,4 3,1 0 0,0
10.11.2018 01:00:00 8,4 7,5 8,1 8,4 8,8 11,7 10 5 14 8 ESE 1014,3 3,3 0 0,0
10.11.2018 00:00:00 8,1 7,5 8,0 8,4 8,8 11,7 8 5 11 6 ESE 1015,0 2,5 0 0,0

tt = Température de l'air
td = dewpoint
tt 5cm = Température de l'air 5cm
tt -5cm = Température de l'air -5cm
tt -20cm = Température de l'air -20cm
tt -100cm = Température de l'air -100cm
ff = Vitesse du vent
fx = gusts
dd = Direction du vent
ppp = reduced air pressure
vv = visibility
sd = Ensoleillement
rr = Quantités de précipitations

stations d'obs. à proximité